Time,TemperatureF,DewpointF,PressureIn,WindDirection,WindDirectionDegrees,WindSpeedMPH,WindSpeedGustMPH,Humidity,HourlyPrecipIn,Conditions,Clouds,dailyrainin,SoftwareType,DateUTC
2013-01-15 00:02:00,32.0,24.0,30.27,NNW,331,4.0,7.0,71,0.00,,,0.00,,2013-01-15 06:02:00,
2013-01-15 00:12:00,32.0,24.0,30.27,NNW,331,4.0,7.0,71,0.00,,,0.00,,2013-01-15 06:12:00,
2013-01-15 00:22:00,32.0,23.0,30.27,North,349,3.0,8.0,69,0.00,,,0.00,,2013-01-15 06:22:00,
2013-01-15 00:33:00,32.0,23.0,30.27,NE,41,3.0,7.0,70,0.00,,,0.00,,2013-01-15 06:33:00,
2013-01-15 00:42:00,32.0,23.0,30.27,NE,41,3.0,7.0,70,0.00,,,0.00,,2013-01-15 06:42:00,
2013-01-15 00:52:00,32.0,24.0,30.27,North,4,4.0,7.0,71,0.00,,,0.00,,2013-01-15 06:52:00,
2013-01-15 01:02:00,31.0,23.0,30.26,North,9,4.0,8.0,72,0.00,,,0.00,,2013-01-15 07:02:00,
2013-01-15 01:12:00,31.0,23.0,30.26,North,9,4.0,8.0,72,0.00,,,0.00,,2013-01-15 07:12:00,
2013-01-15 01:22:00,31.0,23.0,30.25,NNE,27,6.0,9.0,72,0.00,,,0.00,,2013-01-15 07:22:00,
2013-01-15 01:32:00,31.0,23.0,30.24,NE,38,5.0,10.0,73,0.00,,,0.00,,2013-01-15 07:32:00,
2013-01-15 01:42:00,31.0,23.0,30.24,NE,38,5.0,10.0,73,0.00,,,0.00,,2013-01-15 07:42:00,
2013-01-15 01:52:00,31.0,23.0,30.24,North,349,4.0,7.0,73,0.00,,,0.00,,2013-01-15 07:52:00,
2013-01-15 02:02:00,31.0,23.0,30.24,NNW,328,3.0,8.0,73,0.00,,,0.00,,2013-01-15 08:02:00,
2013-01-15 02:12:00,31.0,23.0,30.24,NNW,328,3.0,8.0,73,0.00,,,0.00,,2013-01-15 08:12:00,
2013-01-15 02:22:00,31.0,24.0,30.26,North,357,3.0,7.0,74,0.00,,,0.00,,2013-01-15 08:22:00,
2013-01-15 02:33:00,31.0,23.0,30.27,NNE,22,4.0,7.0,73,0.00,,,0.00,,2013-01-15 08:33:00,
2013-01-15 02:42:00,31.0,23.0,30.27,NNE,22,4.0,7.0,73,0.00,,,0.00,,2013-01-15 08:42:00,
2013-01-15 02:52:00,31.0,23.0,30.26,North,355,4.0,10.0,73,0.00,,,0.00,,2013-01-15 08:52:00,
2013-01-15 03:02:00,31.0,24.0,30.26,North,9,5.0,9.0,74,0.00,,,0.00,,2013-01-15 09:02:00,
2013-01-15 03:12:00,31.0,24.0,30.26,North,9,5.0,9.0,74,0.00,,,0.00,,2013-01-15 09:12:00,
2013-01-15 03:22:00,31.0,23.0,30.25,NNE,19,6.0,11.0,73,0.00,,,0.00,,2013-01-15 09:22:00,
2013-01-15 03:33:00,31.0,23.0,30.25,NNE,19,6.0,11.0,73,0.00,,,0.00,,2013-01-15 09:33:00,
2013-01-15 03:42:00,31.0,23.0,30.25,NNE,19,6.0,11.0,73,0.00,,,0.00,,2013-01-15 09:42:00,
2013-01-15 03:52:00,31.0,24.0,30.25,NE,38,5.0,10.0,74,0.00,,,0.00,,2013-01-15 09:52:00,
2013-01-15 04:02:00,31.0,24.0,30.26,North,4,5.0,12.0,74,0.00,,,0.00,,2013-01-15 10:02:00,
2013-01-15 04:12:00,31.0,24.0,30.26,North,4,5.0,12.0,74,0.00,,,0.00,,2013-01-15 10:12:00,
2013-01-15 04:22:00,31.0,23.0,30.25,NNW,344,8.0,14.0,73,0.00,,,0.00,,2013-01-15 10:22:00,
2013-01-15 04:32:00,31.0,23.0,30.25,NNW,327,7.0,12.0,73,0.00,,,0.00,,2013-01-15 10:32:00,
2013-01-15 04:42:00,31.0,23.0,30.25,NNW,327,7.0,12.0,73,0.00,,,0.00,,2013-01-15 10:42:00,
2013-01-15 04:52:00,31.0,24.0,30.24,North,11,6.0,12.0,74,0.00,,,0.00,,2013-01-15 10:52:00,
2013-01-15 05:02:00,32.0,25.0,30.24,NNE,18,7.0,10.0,74,0.00,,,0.00,,2013-01-15 11:02:00,
2013-01-15 05:12:00,32.0,25.0,30.24,NNE,18,7.0,10.0,74,0.00,,,0.00,,2013-01-15 11:12:00,
2013-01-15 05:22:00,32.0,25.0,30.24,North,349,6.0,12.0,75,0.00,,,0.00,,2013-01-15 11:22:00,
2013-01-15 05:33:00,32.0,25.0,30.25,NNE,22,4.0,10.0,75,0.00,,,0.00,,2013-01-15 11:33:00,
2013-01-15 05:42:00,32.0,25.0,30.25,NNE,22,4.0,10.0,75,0.00,,,0.00,,2013-01-15 11:42:00,
2013-01-15 05:52:00,32.0,25.0,30.25,NNE,22,4.0,10.0,75,0.00,,,0.00,,2013-01-15 11:52:00,
2013-01-15 06:03:00,32.0,26.0,30.23,North,6,3.0,13.0,77,0.00,,,0.00,,2013-01-15 12:03:00,
2013-01-15 06:12:00,32.0,26.0,30.23,North,6,3.0,13.0,77,0.00,,,0.00,,2013-01-15 12:12:00,
2013-01-15 06:22:00,32.0,26.0,30.28,NNW,328,2.0,7.0,77,0.00,,,0.00,,2013-01-15 12:22:00,
2013-01-15 06:33:00,32.0,26.0,30.28,NNE,26,0.0,0.0,78,0.00,,,0.00,,2013-01-15 12:33:00,
2013-01-15 06:42:00,32.0,26.0,30.28,NNE,26,0.0,0.0,78,0.00,,,0.00,,2013-01-15 12:42:00,
2013-01-15 06:53:00,31.0,27.0,30.29,North,352,3.0,8.0,84,0.00,,,0.00,,2013-01-15 12:53:00,
2013-01-15 07:03:00,30.0,27.0,30.31,North,6,3.0,6.0,88,0.00,,,0.00,,2013-01-15 13:03:00,
2013-01-15 07:12:00,30.0,27.0,30.31,North,6,3.0,6.0,88,0.00,,,0.00,,2013-01-15 13:12:00,
2013-01-15 07:23:00,30.0,28.0,30.28,NNE,31,3.0,8.0,92,0.00,,,0.00,,2013-01-15 13:23:00,
2013-01-15 07:33:00,29.0,27.0,30.29,NE,47,4.0,8.0,93,0.00,,,0.00,,2013-01-15 13:33:00,
2013-01-15 07:43:00,29.0,27.0,30.29,NE,47,4.0,8.0,93,0.00,,,0.00,,2013-01-15 13:43:00,
2013-01-15 07:53:00,29.0,27.0,30.28,NE,41,7.0,12.0,93,0.00,,,0.00,,2013-01-15 13:53:00,
2013-01-15 08:02:00,29.0,27.0,30.27,NNE,18,7.0,11.0,93,0.00,,,0.00,,2013-01-15 14:02:00,
2013-01-15 08:12:00,29.0,27.0,30.27,NNE,18,7.0,11.0,93,0.00,,,0.00,,2013-01-15 14:12:00,
2013-01-15 08:23:00,29.0,27.0,30.28,NNE,29,5.0,11.0,93,0.00,,,0.00,,2013-01-15 14:23:00,
2013-01-15 08:33:00,29.0,27.0,30.27,NNE,27,8.0,12.0,93,0.00,,,0.00,,2013-01-15 14:33:00,
2013-01-15 08:43:00,29.0,27.0,30.27,NNE,27,8.0,12.0,93,0.00,,,0.00,,2013-01-15 14:43:00,
2013-01-15 08:53:00,29.0,27.0,30.27,NNE,12,8.0,14.0,93,0.00,,,0.00,,2013-01-15 14:53:00,
2013-01-15 09:03:00,29.0,27.0,30.27,NNE,23,7.0,14.0,93,0.00,,,0.00,,2013-01-15 15:03:00,
2013-01-15 09:12:00,29.0,27.0,30.27,NNE,23,7.0,14.0,93,0.00,,,0.00,,2013-01-15 15:12:00,
2013-01-15 09:23:00,30.0,28.0,30.26,NNE,28,9.0,12.0,92,0.00,,,0.00,,2013-01-15 15:23:00,
2013-01-15 09:33:00,30.0,27.0,30.25,NNE,30,8.0,-999.0,90,-99.99,,,-99.99,,2013-01-15 15:33:00,
2013-01-15 09:43:00,30.0,27.0,30.25,NNE,30,8.0,-999.0,90,-99.99,,,-99.99,,2013-01-15 15:43:00,
2013-01-15 09:53:00,31.0,28.0,30.25,NNE,25,6.0,12.0,88,0.00,,,0.00,,2013-01-15 15:53:00,
2013-01-15 10:03:00,32.0,29.0,30.25,NNE,18,8.0,13.0,87,0.00,,,0.00,,2013-01-15 16:03:00,
2013-01-15 10:12:00,32.0,29.0,30.25,NNE,18,8.0,13.0,87,0.00,,,0.00,,2013-01-15 16:12:00,
2013-01-15 10:22:00,32.0,28.0,30.25,NE,37,10.0,15.0,86,0.00,,,0.00,,2013-01-15 16:22:00,
2013-01-15 10:33:00,33.0,29.0,30.26,North,8,6.0,10.0,85,0.00,,,0.00,,2013-01-15 16:33:00,
2013-01-15 10:42:00,33.0,29.0,30.26,North,8,6.0,10.0,85,0.00,,,0.00,,2013-01-15 16:42:00,
2013-01-15 10:53:00,33.0,29.0,30.25,NNE,26,5.0,10.0,85,0.00,,,0.00,,2013-01-15 16:53:00,
2013-01-15 11:03:00,33.0,29.0,30.25,NNW,337,5.0,9.0,84,0.00,,,0.00,,2013-01-15 17:03:00,
2013-01-15 11:12:00,33.0,29.0,30.25,NNW,337,5.0,9.0,84,0.00,,,0.00,,2013-01-15 17:12:00,
2013-01-15 11:22:00,34.0,30.0,30.24,NE,35,5.0,10.0,84,0.00,,,0.00,,2013-01-15 17:22:00,
2013-01-15 11:33:00,34.0,30.0,30.24,North,6,5.0,8.0,84,0.00,,,0.00,,2013-01-15 17:33:00,
2013-01-15 11:42:00,34.0,30.0,30.24,North,6,5.0,8.0,84,0.00,,,0.00,,2013-01-15 17:42:00,
2013-01-15 11:53:00,34.0,29.0,30.24,NNE,12,6.0,10.0,83,0.00,,,0.00,,2013-01-15 17:53:00,
2013-01-15 12:03:00,34.0,30.0,30.24,North,358,4.0,9.0,84,0.00,,,0.00,,2013-01-15 18:03:00,
2013-01-15 12:13:00,34.0,30.0,30.24,North,358,4.0,9.0,84,0.00,,,0.00,,2013-01-15 18:13:00,
2013-01-15 12:23:00,34.0,29.0,30.24,NW,313,6.0,13.0,83,0.00,,,0.00,,2013-01-15 18:23:00,
2013-01-15 12:33:00,34.0,29.0,30.24,North,356,5.0,9.0,82,0.00,,,0.00,,2013-01-15 18:33:00,
2013-01-15 12:43:00,34.0,29.0,30.24,North,356,5.0,9.0,82,0.00,,,0.00,,2013-01-15 18:43:00,
2013-01-15 12:53:00,34.0,29.0,30.23,NNW,331,5.0,9.0,81,0.00,,,0.00,,2013-01-15 18:53:00,
2013-01-15 13:03:00,35.0,29.0,30.22,North,1,4.0,7.0,80,0.00,,,0.00,,2013-01-15 19:03:00,
2013-01-15 13:12:00,35.0,29.0,30.22,North,1,4.0,7.0,80,0.00,,,0.00,,2013-01-15 19:12:00,
2013-01-15 13:23:00,35.0,29.0,30.22,North,359,4.0,8.0,80,0.00,,,0.00,,2013-01-15 19:23:00,
2013-01-15 13:33:00,35.0,29.0,30.22,NNE,22,4.0,10.0,80,0.00,,,0.00,,2013-01-15 19:33:00,
2013-01-15 13:42:00,35.0,29.0,30.22,NNE,22,4.0,10.0,80,0.00,,,0.00,,2013-01-15 19:42:00,
2013-01-15 13:53:00,35.0,29.0,30.22,NNW,333,5.0,10.0,80,0.00,,,0.00,,2013-01-15 19:53:00,
2013-01-15 14:03:00,36.0,30.0,30.21,NNW,340,5.0,10.0,80,0.01,,,0.01,,2013-01-15 20:03:00,
2013-01-15 14:12:00,36.0,30.0,30.21,NNW,340,5.0,10.0,80,0.01,,,0.01,,2013-01-15 20:12:00,
2013-01-15 14:23:00,36.0,30.0,30.21,NW,326,6.0,12.0,78,0.01,,,0.01,,2013-01-15 20:23:00,
2013-01-15 14:33:00,36.0,29.0,30.22,NNW,335,8.0,12.0,75,0.02,,,0.02,,2013-01-15 20:33:00,
2013-01-15 14:43:00,36.0,29.0,30.22,NNW,335,8.0,12.0,75,0.02,,,0.02,,2013-01-15 20:43:00,
2013-01-15 14:52:00,36.0,29.0,30.22,NW,320,5.0,11.0,74,0.02,,,0.02,,2013-01-15 20:52:00,
2013-01-15 15:03:00,37.0,29.0,30.22,NNW,340,6.0,13.0,74,0.02,,,0.03,,2013-01-15 21:03:00,
2013-01-15 15:13:00,37.0,29.0,30.22,NNW,340,6.0,13.0,74,0.02,,,0.03,,2013-01-15 21:13:00,
2013-01-15 15:23:00,37.0,29.0,30.22,NNE,28,5.0,10.0,73,0.02,,,0.03,,2013-01-15 21:23:00,
2013-01-15 15:33:00,37.0,29.0,30.22,North,9,8.0,13.0,72,0.01,,,0.03,,2013-01-15 21:33:00,
2013-01-15 15:43:00,37.0,29.0,30.22,North,9,8.0,13.0,72,0.01,,,0.03,,2013-01-15 21:43:00,
2013-01-15 15:52:00,37.0,28.0,30.22,North,352,6.0,11.0,70,0.01,,,0.03,,2013-01-15 21:52:00,
2013-01-15 16:03:00,38.0,29.0,30.22,North,355,5.0,11.0,69,0.00,,,0.03,,2013-01-15 22:03:00,
2013-01-15 16:12:00,38.0,29.0,30.22,North,355,5.0,11.0,69,0.00,,,0.03,,2013-01-15 22:12:00,
2013-01-15 16:23:00,38.0,29.0,30.23,NNE,18,5.0,12.0,70,0.01,,,0.04,,2013-01-15 22:23:00,
2013-01-15 16:33:00,38.0,29.0,30.24,NNE,15,4.0,11.0,70,0.01,,,0.04,,2013-01-15 22:33:00,
2013-01-15 16:43:00,38.0,29.0,30.24,NNE,15,4.0,11.0,70,0.01,,,0.04,,2013-01-15 22:43:00,
2013-01-15 16:52:00,38.0,29.0,30.24,NNW,337,4.0,10.0,69,0.01,,,0.04,,2013-01-15 22:52:00,
2013-01-15 17:02:00,38.0,29.0,30.24,NNW,337,4.0,10.0,69,0.01,,,0.04,,2013-01-15 23:02:00,
2013-01-15 17:13:00,38.0,29.0,30.24,NNW,337,4.0,10.0,69,0.01,,,0.04,,2013-01-15 23:13:00,
2013-01-15 17:22:00,38.0,29.0,30.24,NNW,337,4.0,10.0,69,0.01,,,0.04,,2013-01-15 23:22:00,
2013-01-15 17:33:00,38.0,28.0,30.25,NNW,330,6.0,12.0,68,0.00,,,0.04,,2013-01-15 23:33:00,
2013-01-15 17:43:00,38.0,28.0,30.25,NNW,330,6.0,12.0,68,0.00,,,0.04,,2013-01-15 23:43:00,
2013-01-15 17:53:00,38.0,28.0,30.24,North,8,4.0,7.0,68,0.00,,,0.04,,2013-01-15 23:53:00,
2013-01-15 18:02:00,38.0,28.0,30.24,North,8,4.0,7.0,68,0.00,,,0.04,,2013-01-16 00:02:00,
2013-01-15 18:12:00,38.0,28.0,30.24,North,8,4.0,7.0,68,0.00,,,0.04,,2013-01-16 00:12:00,
2013-01-15 18:22:00,38.0,28.0,30.24,NNW,347,7.0,11.0,68,0.00,,,0.04,,2013-01-16 00:22:00,
2013-01-15 18:33:00,38.0,29.0,30.25,WNW,302,4.0,10.0,70,0.00,,,0.04,,2013-01-16 00:33:00,
2013-01-15 18:43:00,38.0,29.0,30.25,WNW,302,4.0,10.0,70,0.00,,,0.04,,2013-01-16 00:43:00,
2013-01-15 18:52:00,38.0,29.0,30.26,NNW,328,3.0,9.0,70,0.00,,,0.04,,2013-01-16 00:52:00,
2013-01-15 19:03:00,38.0,29.0,30.26,NNW,346,4.0,7.0,70,0.00,,,0.04,,2013-01-16 01:03:00,
2013-01-15 19:12:00,38.0,29.0,30.26,NNW,346,4.0,7.0,70,0.00,,,0.04,,2013-01-16 01:12:00,
2013-01-15 19:22:00,38.0,29.0,30.27,NW,316,3.0,8.0,70,0.00,,,0.04,,2013-01-16 01:22:00,
2013-01-15 19:33:00,38.0,28.0,30.28,NNW,332,6.0,11.0,68,0.00,,,0.04,,2013-01-16 01:33:00,
2013-01-15 19:42:00,38.0,28.0,30.28,NNW,332,6.0,11.0,68,0.00,,,0.04,,2013-01-16 01:42:00,
2013-01-15 19:52:00,38.0,28.0,30.28,NNW,332,6.0,11.0,68,0.00,,,0.04,,2013-01-16 01:52:00,
2013-01-15 20:03:00,37.0,27.0,30.28,NNW,327,6.0,13.0,67,0.00,,,0.04,,2013-01-16 02:03:00,
2013-01-15 20:12:00,37.0,27.0,30.28,NNW,327,6.0,13.0,67,0.00,,,0.04,,2013-01-16 02:12:00,
2013-01-15 20:22:00,37.0,27.0,30.28,NNW,332,4.0,9.0,67,0.00,,,0.04,,2013-01-16 02:22:00,
2013-01-15 20:32:00,37.0,27.0,30.28,NNW,337,5.0,11.0,67,0.00,,,0.04,,2013-01-16 02:32:00,
2013-01-15 20:42:00,37.0,27.0,30.28,NNW,337,5.0,11.0,67,0.00,,,0.04,,2013-01-16 02:42:00,
2013-01-15 20:52:00,37.0,27.0,30.28,NNW,337,5.0,11.0,67,0.00,,,0.04,,2013-01-16 02:52:00,
2013-01-15 21:03:00,36.0,25.0,30.28,NW,307,4.0,8.0,65,0.00,,,0.04,,2013-01-16 03:03:00,
2013-01-15 21:12:00,36.0,25.0,30.28,NW,307,4.0,8.0,65,0.00,,,0.04,,2013-01-16 03:12:00,
2013-01-15 21:22:00,36.0,26.0,30.29,NW,311,3.0,7.0,66,0.00,,,0.04,,2013-01-16 03:22:00,
2013-01-15 21:32:00,35.0,24.0,30.29,NW,321,4.0,8.0,65,0.00,,,0.04,,2013-01-16 03:32:00,
2013-01-15 21:43:00,35.0,24.0,30.29,NW,321,4.0,8.0,65,0.00,,,0.04,,2013-01-16 03:43:00,
2013-01-15 21:52:00,35.0,24.0,30.29,NNW,327,3.0,7.0,65,0.00,,,0.04,,2013-01-16 03:52:00,
2013-01-15 22:02:00,34.0,24.0,30.29,NW,315,2.0,6.0,67,0.00,,,0.04,,2013-01-16 04:02:00,
2013-01-15 22:12:00,34.0,24.0,30.29,NW,315,2.0,6.0,67,0.00,,,0.04,,2013-01-16 04:12:00,
2013-01-15 22:22:00,34.0,25.0,30.27,NNW,346,3.0,7.0,68,0.00,,,0.04,,2013-01-16 04:22:00,
2013-01-15 22:32:00,33.0,24.0,30.27,NNW,327,3.0,6.0,69,0.00,,,0.04,,2013-01-16 04:32:00,
2013-01-15 22:42:00,33.0,24.0,30.27,NNW,327,3.0,6.0,69,0.00,,,0.04,,2013-01-16 04:42:00,
2013-01-15 22:52:00,33.0,24.0,30.27,NNW,327,3.0,6.0,69,0.00,,,0.04,,2013-01-16 04:52:00,
2013-01-15 23:03:00,33.0,24.0,30.28,NNE,28,5.0,9.0,70,0.00,,,0.04,,2013-01-16 05:03:00,
2013-01-15 23:12:00,33.0,24.0,30.28,NNE,28,5.0,9.0,70,0.00,,,0.04,,2013-01-16 05:12:00,
2013-01-15 23:22:00,32.0,24.0,30.27,NW,319,3.0,8.0,71,0.00,,,0.04,,2013-01-16 05:22:00,
2013-01-15 23:32:00,32.0,24.0,30.27,NNW,337,3.0,6.0,71,0.00,,,0.04,,2013-01-16 05:32:00,
2013-01-15 23:42:00,32.0,24.0,30.27,NNW,337,3.0,6.0,71,0.00,,,0.04,,2013-01-16 05:42:00,
2013-01-15 23:53:00,32.0,24.0,30.27,NW,311,3.0,6.0,71,0.00,,,0.04,,2013-01-16 05:53:00,